User: anonymous   Login
Location: Unspecified
(0.0000°N, 0.0000°E)
Time: 11:32:55
(UTC+00:00)
Language:

Picosat 6 - Orbit

View from above orbital plane
View from above orbital plane
View from above satellite
View from above satellite

Ground track
Ground track

The orbit data is extracted from the following two-line orbital elements,

1 26094U 00004M   17264.39518396 +.00000103 +00000-0 +49050-4 0  9995
2 26094 100.1987 327.0781 0033328 287.7225 072.0322 14.42352059924869
Epoch (UTC): 21 September 2017 09:29:03
Eccentricity: 0.0033328
inclination: 100.1987°
perigee height: 727 km
apogee height: 774 km
right ascension of ascending node: 327.0781°
argument of perigee: 287.7225°
revolutions per day: 14.42352059
mean anomaly at epoch: 72.0322°
orbit number at epoch: 92486

The dashed part of the orbit path shows where the satellite is in the earth's shadow,  

DLR